Regional Weather Roundup
Issued by NWS Goodland, KS

Home | Current Version | Previous Version | Text Only | Print | Product List | Glossary Off
Versions: 1 2 3 4 5 6 7 8 9 10 11 12 13 14 15 16 17 18 19 20 21 22 23 24 25 26 27 28 29 30 31 32 33 34 35 36 37 38 39 40 41 42 43 44 45 46 47 48 49 50

763
ASUS43 KGLD 260959
RWRGLD

GOODLAND FORECAST AREA HOURLY WEATHER ROUNDUP
NATIONAL WEATHER SERVICE GOODLAND KS
400 AM MDT SUN MAR 26 2017

...OFFICIAL OBSERVATIONS...

CITY           SKY/WX    TMP DP  RH WIND       PRES   REMARKS
GOODLAND KS    MOCLDY    37  37 100 SE6       29.81F FOG
HILL CITY KS   CLOUDY    40  40 100 E5        29.88S FOG
IMPERIAL NEB   FOG       38  37  97 SE7       29.83F VSB 1/4
MCCOOK NEB     FOG       40  40 100 SE6       29.85F VSB 3/4
AKRON CO       CLOUDY    43  28  55 S14       29.79F
BURLINGTON CO  PTCLDY    39  38  96 SE10      29.79F
LIMON CO       CLOUDY    37  31  78 CALM      29.79F
$$

...UNOFFICIAL OBSERVATIONS...

CITY           SKY/WX    TMP DP  RH WIND       PRES   REMARKS
LENORA KS        N/A     39  32  76 CALM        N/A
NORTON KS      CLOUDY    39  36  87 SE3       29.86F
SHARON SPRINGS   N/A     37  35  93 SE5         N/A
TRENTON NEB      N/A     40  32  73 CALM        N/A
YUMA CO        CLOUDY    37  36  93 S3        29.80S
$$




USA.gov is the U.S. government's official web portal to all federal, state and local government web resources and services.